Vorticity
7 7 8 5 4 6 5 6 7 6 6 5 6 6 5 6 6 5 5 5 5 5 5 6 7 7 7 7 7 8 7 7 7 7 7 8 9 9 8 8 9 9
7 7 7 6 4 5 6 5 6 5 5 5 5 6 6 6 7 6 6 6 5 5 6 5 6 6 7 7 7 8 7 7 7 6 7 7 9 10 9 8 8 9
9 7 6 7 5 5 6 5 5 5 4 5 5 5 5 5 7 7 6 7 6 6 6 6 5 5 6 6 7 7 7 7 6 6 7 7 8 9 9 9 9 9
9 9 6 7 7 6 6 5 4 4 4 4 4 5 5 5 5 6 6 7 6 7 7 7 6 6 6 5 6 6 6 7 6 6 7 7 7 8 8 9 9 10
8 11 9 7 8 7 6 4 4 4 3 3 4 4 5 4 4 5 6 6 7 7 7 8 8 7 7 6 6 6 6 6 6 6 6 6 7 7 8 8 9 10
9 10 10 9 8 8 6 5 5 4 4 4 4 5 4 4 5 5 5 6 7 7 7 8 8 9 9 8 7 6 6 7 6 6 6 5 5 5 6 7 8 9
7 9 11 11 10 9 8 7 6 5 4 5 5 5 5 4 4 5 6 7 7 7 7 7 7 8 9 9 8 7 7 7 7 7 7 6 5 5 5 6 7 8
5 6 10 10 10 11 10 9 9 5 5 6 5 5 6 5 5 5 6 7 7 7 7 7 7 7 8 8 9 8 8 8 7 7 7 7 7 6 5 5 6 7
2 3 7 9 9 10 10 10 10 8 7 6 5 6 6 6 5 5 6 7 7 7 6 7 7 6 7 7 8 9 9 9 8 7 7 7 7 7 6 6 5 6
3 1 3 6 7 8 9 10 11 11 10 7 6 6 6 6 6 5 6 6 6 7 6 6 6 6 7 7 7 9 9 9 9 9 9 8 7 7 7 7 6 6
7 2 1 2 4 7 7 8 9 10 11 10 8 7 6 6 6 5 6 6 6 7 6 7 6 5 6 6 7 9 9 10 10 9 10 10 9 8 7 7 7 6
9 9 7 1 1 4 4 6 8 7 9 10 10 10 8 7 7 6 6 6 7 6 6 6 5 5 6 6 7 8 8 10 10 10 10 10 10 10 9 9 7 6
11 12 9 5 2 3 2 3 5 5 7 8 9 11 10 9 9 7 7 6 6 6 5 4 4 4 5 5 5 6 6 7 9 10 10 10 10 10 9 9 9 8
10 7 8 11 9 5 3 3 3 4 5 6 9 11 10 10 10 9 9 8 7 6 4 3 3 3 4 5 5 5 5 6 7 8 10 10 10 11 10 9 10 9
10 6 9 14 8 6 8 6 3 3 4 4 6 8 9 10 11 11 10 9 8 8 5 3 3 3 4 5 4 5 5 6 6 7 9 9 10 11 10 9 10 10
18 11 8 5 -0 3 9 8 6 6 6 4 4 5 5 6 8 9 10 10 10 9 7 5 5 5 5 5 5 6 5 6 7 7 8 9 10 11 11 11 10 9
12 11 9 4 3 5 7 9 9 5 5 6 5 5 5 5 6 7 8 9 9 9 8 7 7 7 7 6 6 6 5 5 6 7 7 8 9 9 10 11 10 10
2 6 11 13 14 9 8 13 9 -0 1 6 5 5 6 5 5 6 6 6 7 8 7 6 6 7 7 7 7 6 6 5 5 6 6 6 7 9 9 10 10 10
4 4 8 13 12 5 8 15 9 1 3 4 1 3 6 6 6 6 6 6 5 5 5 5 6 6 5 7 8 7 6 5 5 6 6 6 6 7 7 9 10 10
5 4 5 10 9 7 12 15 12 11 10 5 2 2 1 2 7 8 7 7 7 6 6 4 4 6 5 4 5 6 6 5 5 5 6 6 6 6 6 6 7 8
4 3 5 8 7 7 11 11 12 15 11 7 8 9 4 -1 2 8 10 8 8 8 9 9 7 8 7 5 5 6 5 5 5 5 5 6 5 5 5 5 6 6
7 4 4 5 4 5 7 9 13 14 10 10 11 11 8 1 1 8 11 9 8 7 5 5 5 5 6 6 7 9 8 7 6 6 5 5 5 5 5 5 5 5
14 10 7 3 3 6 8 11 13 10 8 11 12 9 8 7 6 9 11 12 15 15 10 6 6 6 5 4 2 4 8 9 9 8 7 6 5 5 4 5 5 5
14 15 13 8 6 5 6 9 10 5 -0 4 9 7 5 8 9 7 8 10 13 13 11 11 12 10 10 10 6 3 3 5 7 8 8 7 7 6 5 4 3 4
6 9 10 13 14 10 7 7 5 1 -1 4 12 12 5 5 9 8 7 7 8 8 9 10 10 9 10 14 11 5 5 7 7 6 5 6 7 7 8 8 8 6
1 2 2 7 15 16 13 10 5 2 2 4 8 9 5 4 8 11 8 5 6 10 10 9 11 12 11 11 9 7 9 10 10 9 7 6 6 7 8 9 10 10
Height
5942 5944 5945 5947 5948 5950 5951 5952 5953 5953 5954 5955 5956 5957 5958 5959 5960 5961 5961 5962 5962 5962 5963 5963 5964 5965 5965 5965 5966 5967 5968 5969 5969 5970 5970 5971 5972 5972 5973 5974 5974 5975
5942 5943 5945 5946 5947 5949 5950 5951 5952 5953 5954 5955 5956 5957 5958 5959 5960 5961 5962 5962 5962 5962 5963 5963 5964 5965 5965 5966 5967 5968 5968 5969 5969 5970 5971 5971 5972 5972 5973 5974 5975 5976
5942 5943 5944 5945 5946 5948 5950 5951 5952 5953 5954 5955 5956 5956 5958 5959 5960 5960 5961 5962 5962 5963 5963 5964 5964 5965 5965 5966 5967 5968 5968 5969 5969 5970 5971 5971 5972 5973 5973 5974 5975 5976
5941 5942 5943 5944 5946 5947 5949 5950 5952 5953 5954 5954 5955 5956 5957 5958 5959 5960 5961 5961 5962 5963 5963 5964 5964 5965 5965 5966 5967 5968 5968 5969 5970 5970 5971 5972 5972 5973 5974 5974 5975 5976
5941 5942 5943 5944 5945 5946 5948 5949 5951 5952 5953 5954 5955 5956 5957 5958 5959 5959 5960 5961 5962 5962 5963 5964 5964 5965 5965 5966 5967 5968 5969 5969 5970 5970 5971 5972 5972 5973 5974 5974 5975 5975
5940 5941 5943 5943 5944 5945 5947 5948 5950 5951 5952 5953 5955 5956 5956 5957 5958 5959 5960 5960 5961 5962 5962 5963 5964 5965 5965 5966 5966 5967 5968 5969 5970 5970 5971 5972 5972 5973 5974 5974 5975 5975
5938 5940 5942 5943 5944 5945 5946 5947 5949 5950 5951 5953 5954 5955 5956 5957 5957 5958 5959 5960 5961 5961 5962 5962 5963 5964 5965 5966 5966 5967 5967 5968 5969 5970 5971 5972 5972 5973 5973 5974 5974 5975
5936 5938 5940 5942 5943 5944 5945 5947 5948 5949 5950 5952 5953 5954 5955 5956 5957 5958 5959 5959 5960 5961 5961 5962 5963 5964 5964 5965 5966 5966 5967 5968 5969 5969 5970 5971 5972 5972 5973 5973 5974 5974
5934 5936 5938 5940 5942 5943 5944 5946 5947 5948 5949 5950 5952 5953 5955 5956 5957 5958 5958 5959 5959 5960 5961 5961 5962 5963 5964 5964 5965 5965 5966 5967 5968 5969 5969 5970 5971 5971 5972 5973 5973 5974
5932 5934 5936 5938 5940 5941 5943 5944 5945 5947 5948 5949 5950 5952 5953 5955 5956 5957 5957 5958 5959 5959 5960 5961 5961 5962 5963 5963 5964 5965 5965 5966 5967 5968 5968 5969 5970 5970 5971 5972 5972 5973
5930 5931 5933 5935 5937 5939 5941 5942 5944 5945 5946 5948 5949 5950 5952 5953 5954 5955 5956 5957 5957 5958 5959 5960 5961 5961 5962 5963 5963 5964 5965 5965 5966 5967 5967 5968 5968 5969 5970 5971 5971 5972
5929 5930 5931 5933 5935 5936 5938 5940 5942 5943 5945 5946 5947 5949 5950 5952 5953 5954 5955 5955 5956 5957 5958 5959 5960 5960 5961 5962 5962 5963 5964 5964 5965 5965 5966 5966 5967 5968 5969 5969 5970 5971
5928 5929 5929 5930 5931 5933 5936 5938 5939 5941 5942 5944 5945 5947 5949 5950 5951 5952 5953 5954 5955 5956 5957 5957 5958 5959 5960 5960 5961 5962 5962 5963 5963 5964 5964 5965 5966 5966 5967 5968 5969 5970
5925 5925 5926 5928 5929 5930 5932 5934 5936 5938 5940 5941 5943 5945 5946 5948 5949 5951 5951 5952 5953 5954 5955 5956 5957 5957 5958 5959 5959 5960 5961 5961 5962 5963 5963 5964 5964 5965 5965 5966 5967 5968
5923 5922 5925 5927 5928 5928 5929 5931 5933 5935 5937 5939 5940 5942 5943 5945 5947 5948 5949 5951 5951 5952 5953 5954 5955 5956 5956 5957 5957 5958 5959 5960 5961 5961 5962 5962 5963 5963 5964 5964 5965 5966
5920 5921 5924 5926 5926 5926 5927 5929 5930 5930 5932 5934 5937 5939 5940 5942 5944 5945 5947 5948 5949 5950 5951 5952 5953 5954 5954 5954 5955 5956 5957 5958 5959 5960 5961 5961 5961 5961 5962 5962 5963 5964
5917 5919 5921 5922 5923 5923 5925 5928 5928 5928 5928 5929 5932 5934 5936 5938 5940 5942 5943 5945 5946 5947 5948 5950 5951 5951 5951 5952 5952 5953 5954 5955 5957 5958 5959 5959 5960 5960 5960 5960 5961 5962
5914 5916 5917 5918 5917 5917 5919 5924 5926 5927 5927 5927 5928 5930 5931 5932 5935 5937 5939 5941 5942 5943 5944 5946 5947 5948 5948 5949 5949 5950 5951 5952 5954 5955 5956 5957 5958 5958 5958 5959 5959 5960
5912 5914 5915 5915 5915 5915 5915 5919 5923 5926 5926 5926 5926 5928 5929 5930 5931 5933 5935 5936 5938 5939 5941 5942 5943 5944 5945 5945 5945 5946 5947 5948 5950 5951 5953 5954 5955 5956 5956 5957 5957 5958
5908 5910 5911 5912 5914 5914 5914 5915 5919 5923 5926 5927 5928 5929 5931 5930 5930 5931 5933 5934 5936 5937 5939 5940 5941 5941 5942 5942 5942 5942 5942 5944 5946 5948 5949 5951 5952 5953 5954 5954 5955 5955
5903 5905 5907 5908 5910 5912 5912 5913 5915 5918 5923 5926 5929 5930 5930 5929 5928 5929 5930 5931 5933 5934 5936 5938 5939 5940 5941 5942 5942 5941 5940 5941 5943 5944 5946 5947 5948 5949 5950 5951 5952 5953
5898 5900 5902 5905 5907 5908 5909 5911 5912 5915 5918 5921 5924 5926 5926 5926 5926 5927 5927 5928 5929 5930 5932 5934 5935 5936 5938 5940 5941 5941 5940 5941 5942 5943 5944 5945 5946 5946 5947 5948 5949 5950
5893 5895 5898 5900 5903 5905 5907 5909 5910 5912 5914 5917 5919 5920 5922 5924 5926 5926 5927 5928 5928 5929 5930 5931 5931 5931 5933 5935 5937 5938 5938 5939 5940 5942 5943 5945 5945 5945 5945 5945 5946 5947
5890 5892 5894 5896 5898 5900 5903 5906 5907 5909 5911 5913 5915 5917 5918 5920 5922 5923 5924 5925 5926 5927 5928 5929 5930 5930 5931 5932 5933 5934 5934 5934 5935 5937 5940 5942 5944 5945 5945 5944 5944 5944
5887 5888 5890 5892 5894 5896 5899 5902 5904 5905 5907 5909 5911 5912 5914 5916 5917 5918 5919 5920 5922 5923 5924 5925 5926 5927 5928 5929 5930 5931 5931 5931 5932 5933 5935 5937 5938 5940 5941 5942 5942 5942
5882 5884 5886 5888 5890 5892 5895 5897 5899 5901 5903 5904 5906 5907 5909 5911 5914 5914 5915 5916 5917 5918 5920 5921 5922 5923 5924 5925 5925 5926 5927 5928 5929 5931 5932 5932 5933 5935 5936 5938 5938 5939